<?xml version="1.0"?>
<gpx xmlns="http://www.topografix.com/GPX/1/1" xmlns:xsi="http://www.w3.org/2001/XMLSchema-instance" version="1.1" creator="GPX RubyGem 1.0.0 -- http://dougfales.github.io/gpx/" xsi:schemaLocation="http://www.topografix.com/GPX/1/1 http://www.topografix.com/GPX/1/1/gpx.xsd">
  <metadata>
    <name/>
    <time>2026-05-08T21:20:54+00:00</time>
    <bound minlat="90.0" minlon="180.0" maxlat="-90.0" maxlon="-180.0"/>
  </metadata>
  <trk>
    <name/>
    <trkseg>
      <trkpt lat="48.213886" lon="8.23052">
        <time>1970-01-01T00:00:00+00:00</time>
        <ele>367.0</ele>
      </trkpt>
      <trkpt lat="48.213788" lon="8.230267">
        <time>1970-01-01T00:00:00+00:00</time>
        <ele>365.0</ele>
      </trkpt>
      <trkpt lat="48.213881" lon="8.230148">
        <time>1970-01-01T00:00:00+00:00</time>
        <ele>362.0</ele>
      </trkpt>
      <trkpt lat="48.213926" lon="8.23009">
        <time>1970-01-01T00:00:00+00:00</time>
        <ele>361.0</ele>
      </trkpt>
      <trkpt lat="48.213941" lon="8.230071">
        <time>1970-01-01T00:00:00+00:00</time>
        <ele>361.0</ele>
      </trkpt>
      <trkpt lat="48.213737" lon="8.229521">
        <time>1970-01-01T00:00:00+00:00</time>
        <ele>361.0</ele>
      </trkpt>
      <trkpt lat="48.213715" lon="8.229365">
        <time>1970-01-01T00:00:00+00:00</time>
        <ele>360.0</ele>
      </trkpt>
      <trkpt lat="48.21382" lon="8.229089">
        <time>1970-01-01T00:00:00+00:00</time>
        <ele>360.0</ele>
      </trkpt>
      <trkpt lat="48.214071" lon="8.229356">
        <time>1970-01-01T00:00:00+00:00</time>
        <ele>363.0</ele>
      </trkpt>
      <trkpt lat="48.214158" lon="8.229374">
        <time>1970-01-01T00:00:00+00:00</time>
        <ele>365.0</ele>
      </trkpt>
      <trkpt lat="48.214297" lon="8.229349">
        <time>1970-01-01T00:00:00+00:00</time>
        <ele>368.0</ele>
      </trkpt>
      <trkpt lat="48.21435" lon="8.229359">
        <time>1970-01-01T00:00:00+00:00</time>
        <ele>370.0</ele>
      </trkpt>
      <trkpt lat="48.214608" lon="8.229515">
        <time>1970-01-01T00:00:00+00:00</time>
        <ele>376.0</ele>
      </trkpt>
      <trkpt lat="48.214839" lon="8.229359">
        <time>1970-01-01T00:00:00+00:00</time>
        <ele>383.0</ele>
      </trkpt>
      <trkpt lat="48.214873" lon="8.229354">
        <time>1970-01-01T00:00:00+00:00</time>
        <ele>384.0</ele>
      </trkpt>
      <trkpt lat="48.214986" lon="8.229593">
        <time>1970-01-01T00:00:00+00:00</time>
        <ele>387.0</ele>
      </trkpt>
      <trkpt lat="48.215059" lon="8.229641">
        <time>1970-01-01T00:00:00+00:00</time>
        <ele>388.0</ele>
      </trkpt>
      <trkpt lat="48.215085" lon="8.229649">
        <time>1970-01-01T00:00:00+00:00</time>
        <ele>388.0</ele>
      </trkpt>
      <trkpt lat="48.215214" lon="8.229601">
        <time>1970-01-01T00:00:00+00:00</time>
        <ele>393.0</ele>
      </trkpt>
      <trkpt lat="48.215311" lon="8.22961">
        <time>1970-01-01T00:00:00+00:00</time>
        <ele>396.0</ele>
      </trkpt>
      <trkpt lat="48.215511" lon="8.229674">
        <time>1970-01-01T00:00:00+00:00</time>
        <ele>403.0</ele>
      </trkpt>
      <trkpt lat="48.215679" lon="8.22976">
        <time>1970-01-01T00:00:00+00:00</time>
        <ele>408.0</ele>
      </trkpt>
      <trkpt lat="48.215871" lon="8.229908">
        <time>1970-01-01T00:00:00+00:00</time>
        <ele>415.0</ele>
      </trkpt>
      <trkpt lat="48.216047" lon="8.230082">
        <time>1970-01-01T00:00:00+00:00</time>
        <ele>419.0</ele>
      </trkpt>
      <trkpt lat="48.216452" lon="8.230334">
        <time>1970-01-01T00:00:00+00:00</time>
        <ele>432.0</ele>
      </trkpt>
      <trkpt lat="48.21706" lon="8.230754">
        <time>1970-01-01T00:00:00+00:00</time>
        <ele>449.0</ele>
      </trkpt>
      <trkpt lat="48.217527" lon="8.231111">
        <time>1970-01-01T00:00:00+00:00</time>
        <ele>471.0</ele>
      </trkpt>
      <trkpt lat="48.217488" lon="8.231383">
        <time>1970-01-01T00:00:00+00:00</time>
        <ele>472.0</ele>
      </trkpt>
      <trkpt lat="48.217463" lon="8.23181">
        <time>1970-01-01T00:00:00+00:00</time>
        <ele>473.0</ele>
      </trkpt>
      <trkpt lat="48.217398" lon="8.232458">
        <time>1970-01-01T00:00:00+00:00</time>
        <ele>471.0</ele>
      </trkpt>
      <trkpt lat="48.21739" lon="8.232711">
        <time>1970-01-01T00:00:00+00:00</time>
        <ele>471.0</ele>
      </trkpt>
      <trkpt lat="48.217586" lon="8.233004">
        <time>1970-01-01T00:00:00+00:00</time>
        <ele>484.0</ele>
      </trkpt>
      <trkpt lat="48.21765" lon="8.233041">
        <time>1970-01-01T00:00:00+00:00</time>
        <ele>489.0</ele>
      </trkpt>
      <trkpt lat="48.21774" lon="8.233017">
        <time>1970-01-01T00:00:00+00:00</time>
        <ele>496.0</ele>
      </trkpt>
      <trkpt lat="48.2181" lon="8.232447">
        <time>1970-01-01T00:00:00+00:00</time>
        <ele>518.0</ele>
      </trkpt>
      <trkpt lat="48.218121" lon="8.232413">
        <time>1970-01-01T00:00:00+00:00</time>
        <ele>518.0</ele>
      </trkpt>
      <trkpt lat="48.218185" lon="8.232334">
        <time>1970-01-01T00:00:00+00:00</time>
        <ele>521.0</ele>
      </trkpt>
      <trkpt lat="48.218277" lon="8.232223">
        <time>1970-01-01T00:00:00+00:00</time>
        <ele>525.0</ele>
      </trkpt>
      <trkpt lat="48.218339" lon="8.232214">
        <time>1970-01-01T00:00:00+00:00</time>
        <ele>528.0</ele>
      </trkpt>
      <trkpt lat="48.218411" lon="8.232241">
        <time>1970-01-01T00:00:00+00:00</time>
        <ele>531.0</ele>
      </trkpt>
      <trkpt lat="48.218584" lon="8.232405">
        <time>1970-01-01T00:00:00+00:00</time>
        <ele>539.0</ele>
      </trkpt>
      <trkpt lat="48.218818" lon="8.232534">
        <time>1970-01-01T00:00:00+00:00</time>
        <ele>551.0</ele>
      </trkpt>
      <trkpt lat="48.218817" lon="8.232589">
        <time>1970-01-01T00:00:00+00:00</time>
        <ele>551.0</ele>
      </trkpt>
      <trkpt lat="48.218867" lon="8.232633">
        <time>1970-01-01T00:00:00+00:00</time>
        <ele>553.0</ele>
      </trkpt>
      <trkpt lat="48.218824" lon="8.232735">
        <time>1970-01-01T00:00:00+00:00</time>
        <ele>552.0</ele>
      </trkpt>
      <trkpt lat="48.218876" lon="8.232772">
        <time>1970-01-01T00:00:00+00:00</time>
        <ele>554.0</ele>
      </trkpt>
      <trkpt lat="48.218868" lon="8.232847">
        <time>1970-01-01T00:00:00+00:00</time>
        <ele>554.0</ele>
      </trkpt>
      <trkpt lat="48.218924" lon="8.232917">
        <time>1970-01-01T00:00:00+00:00</time>
        <ele>557.0</ele>
      </trkpt>
      <trkpt lat="48.218967" lon="8.233049">
        <time>1970-01-01T00:00:00+00:00</time>
        <ele>559.0</ele>
      </trkpt>
      <trkpt lat="48.219267" lon="8.233303">
        <time>1970-01-01T00:00:00+00:00</time>
        <ele>570.0</ele>
      </trkpt>
      <trkpt lat="48.219417" lon="8.233242">
        <time>1970-01-01T00:00:00+00:00</time>
        <ele>576.0</ele>
      </trkpt>
      <trkpt lat="48.219494" lon="8.233156">
        <time>1970-01-01T00:00:00+00:00</time>
        <ele>578.0</ele>
      </trkpt>
      <trkpt lat="48.219563" lon="8.233035">
        <time>1970-01-01T00:00:00+00:00</time>
        <ele>579.0</ele>
      </trkpt>
      <trkpt lat="48.219575" lon="8.232996">
        <time>1970-01-01T00:00:00+00:00</time>
        <ele>579.0</ele>
      </trkpt>
      <trkpt lat="48.219658" lon="8.233048">
        <time>1970-01-01T00:00:00+00:00</time>
        <ele>582.0</ele>
      </trkpt>
      <trkpt lat="48.219658" lon="8.233048">
        <time>1970-01-01T00:00:00+00:00</time>
        <ele>582.0</ele>
      </trkpt>
      <trkpt lat="48.219575" lon="8.232996">
        <time>1970-01-01T00:00:00+00:00</time>
        <ele>579.0</ele>
      </trkpt>
      <trkpt lat="48.219563" lon="8.233035">
        <time>1970-01-01T00:00:00+00:00</time>
        <ele>579.0</ele>
      </trkpt>
      <trkpt lat="48.219494" lon="8.233156">
        <time>1970-01-01T00:00:00+00:00</time>
        <ele>578.0</ele>
      </trkpt>
      <trkpt lat="48.219417" lon="8.233242">
        <time>1970-01-01T00:00:00+00:00</time>
        <ele>576.0</ele>
      </trkpt>
      <trkpt lat="48.219267" lon="8.233303">
        <time>1970-01-01T00:00:00+00:00</time>
        <ele>570.0</ele>
      </trkpt>
      <trkpt lat="48.218967" lon="8.233049">
        <time>1970-01-01T00:00:00+00:00</time>
        <ele>559.0</ele>
      </trkpt>
      <trkpt lat="48.218924" lon="8.232917">
        <time>1970-01-01T00:00:00+00:00</time>
        <ele>557.0</ele>
      </trkpt>
      <trkpt lat="48.218868" lon="8.232847">
        <time>1970-01-01T00:00:00+00:00</time>
        <ele>554.0</ele>
      </trkpt>
      <trkpt lat="48.218876" lon="8.232772">
        <time>1970-01-01T00:00:00+00:00</time>
        <ele>554.0</ele>
      </trkpt>
      <trkpt lat="48.218824" lon="8.232735">
        <time>1970-01-01T00:00:00+00:00</time>
        <ele>552.0</ele>
      </trkpt>
      <trkpt lat="48.218867" lon="8.232633">
        <time>1970-01-01T00:00:00+00:00</time>
        <ele>553.0</ele>
      </trkpt>
      <trkpt lat="48.218817" lon="8.232589">
        <time>1970-01-01T00:00:00+00:00</time>
        <ele>551.0</ele>
      </trkpt>
      <trkpt lat="48.218818" lon="8.232534">
        <time>1970-01-01T00:00:00+00:00</time>
        <ele>551.0</ele>
      </trkpt>
      <trkpt lat="48.218584" lon="8.232405">
        <time>1970-01-01T00:00:00+00:00</time>
        <ele>539.0</ele>
      </trkpt>
      <trkpt lat="48.218411" lon="8.232241">
        <time>1970-01-01T00:00:00+00:00</time>
        <ele>531.0</ele>
      </trkpt>
      <trkpt lat="48.218339" lon="8.232214">
        <time>1970-01-01T00:00:00+00:00</time>
        <ele>528.0</ele>
      </trkpt>
      <trkpt lat="48.218277" lon="8.232223">
        <time>1970-01-01T00:00:00+00:00</time>
        <ele>525.0</ele>
      </trkpt>
      <trkpt lat="48.218185" lon="8.232334">
        <time>1970-01-01T00:00:00+00:00</time>
        <ele>521.0</ele>
      </trkpt>
      <trkpt lat="48.218121" lon="8.232413">
        <time>1970-01-01T00:00:00+00:00</time>
        <ele>518.0</ele>
      </trkpt>
      <trkpt lat="48.2181" lon="8.232447">
        <time>1970-01-01T00:00:00+00:00</time>
        <ele>518.0</ele>
      </trkpt>
      <trkpt lat="48.21774" lon="8.233017">
        <time>1970-01-01T00:00:00+00:00</time>
        <ele>496.0</ele>
      </trkpt>
      <trkpt lat="48.21765" lon="8.233041">
        <time>1970-01-01T00:00:00+00:00</time>
        <ele>489.0</ele>
      </trkpt>
      <trkpt lat="48.217586" lon="8.233004">
        <time>1970-01-01T00:00:00+00:00</time>
        <ele>484.0</ele>
      </trkpt>
      <trkpt lat="48.21739" lon="8.232711">
        <time>1970-01-01T00:00:00+00:00</time>
        <ele>471.0</ele>
      </trkpt>
      <trkpt lat="48.217398" lon="8.232458">
        <time>1970-01-01T00:00:00+00:00</time>
        <ele>471.0</ele>
      </trkpt>
      <trkpt lat="48.217463" lon="8.23181">
        <time>1970-01-01T00:00:00+00:00</time>
        <ele>473.0</ele>
      </trkpt>
      <trkpt lat="48.217488" lon="8.231383">
        <time>1970-01-01T00:00:00+00:00</time>
        <ele>472.0</ele>
      </trkpt>
      <trkpt lat="48.217527" lon="8.231111">
        <time>1970-01-01T00:00:00+00:00</time>
        <ele>471.0</ele>
      </trkpt>
      <trkpt lat="48.21706" lon="8.230754">
        <time>1970-01-01T00:00:00+00:00</time>
        <ele>449.0</ele>
      </trkpt>
      <trkpt lat="48.216452" lon="8.230334">
        <time>1970-01-01T00:00:00+00:00</time>
        <ele>432.0</ele>
      </trkpt>
      <trkpt lat="48.216047" lon="8.230082">
        <time>1970-01-01T00:00:00+00:00</time>
        <ele>419.0</ele>
      </trkpt>
      <trkpt lat="48.215871" lon="8.229908">
        <time>1970-01-01T00:00:00+00:00</time>
        <ele>415.0</ele>
      </trkpt>
      <trkpt lat="48.215679" lon="8.22976">
        <time>1970-01-01T00:00:00+00:00</time>
        <ele>408.0</ele>
      </trkpt>
      <trkpt lat="48.215511" lon="8.229674">
        <time>1970-01-01T00:00:00+00:00</time>
        <ele>403.0</ele>
      </trkpt>
      <trkpt lat="48.215311" lon="8.22961">
        <time>1970-01-01T00:00:00+00:00</time>
        <ele>396.0</ele>
      </trkpt>
      <trkpt lat="48.215214" lon="8.229601">
        <time>1970-01-01T00:00:00+00:00</time>
        <ele>393.0</ele>
      </trkpt>
      <trkpt lat="48.215085" lon="8.229649">
        <time>1970-01-01T00:00:00+00:00</time>
        <ele>388.0</ele>
      </trkpt>
      <trkpt lat="48.215059" lon="8.229641">
        <time>1970-01-01T00:00:00+00:00</time>
        <ele>388.0</ele>
      </trkpt>
      <trkpt lat="48.214986" lon="8.229593">
        <time>1970-01-01T00:00:00+00:00</time>
        <ele>387.0</ele>
      </trkpt>
      <trkpt lat="48.214873" lon="8.229354">
        <time>1970-01-01T00:00:00+00:00</time>
        <ele>384.0</ele>
      </trkpt>
      <trkpt lat="48.214839" lon="8.229359">
        <time>1970-01-01T00:00:00+00:00</time>
        <ele>383.0</ele>
      </trkpt>
      <trkpt lat="48.214608" lon="8.229515">
        <time>1970-01-01T00:00:00+00:00</time>
        <ele>376.0</ele>
      </trkpt>
      <trkpt lat="48.21435" lon="8.229359">
        <time>1970-01-01T00:00:00+00:00</time>
        <ele>370.0</ele>
      </trkpt>
      <trkpt lat="48.214297" lon="8.229349">
        <time>1970-01-01T00:00:00+00:00</time>
        <ele>368.0</ele>
      </trkpt>
      <trkpt lat="48.214158" lon="8.229374">
        <time>1970-01-01T00:00:00+00:00</time>
        <ele>365.0</ele>
      </trkpt>
      <trkpt lat="48.214071" lon="8.229356">
        <time>1970-01-01T00:00:00+00:00</time>
        <ele>363.0</ele>
      </trkpt>
      <trkpt lat="48.21382" lon="8.229089">
        <time>1970-01-01T00:00:00+00:00</time>
        <ele>360.0</ele>
      </trkpt>
      <trkpt lat="48.213715" lon="8.229365">
        <time>1970-01-01T00:00:00+00:00</time>
        <ele>360.0</ele>
      </trkpt>
      <trkpt lat="48.213737" lon="8.229521">
        <time>1970-01-01T00:00:00+00:00</time>
        <ele>361.0</ele>
      </trkpt>
      <trkpt lat="48.213941" lon="8.230071">
        <time>1970-01-01T00:00:00+00:00</time>
        <ele>361.0</ele>
      </trkpt>
      <trkpt lat="48.213926" lon="8.23009">
        <time>1970-01-01T00:00:00+00:00</time>
        <ele>361.0</ele>
      </trkpt>
      <trkpt lat="48.213881" lon="8.230148">
        <time>1970-01-01T00:00:00+00:00</time>
        <ele>362.0</ele>
      </trkpt>
      <trkpt lat="48.213788" lon="8.230267">
        <time>1970-01-01T00:00:00+00:00</time>
        <ele>365.0</ele>
      </trkpt>
      <trkpt lat="48.213886" lon="8.23052">
        <time>1970-01-01T00:00:00+00:00</time>
        <ele>367.0</ele>
      </trkpt>
    </trkseg>
  </trk>
</gpx>
